This is the latest recevied weather packets stored in our database for station/object KA1JKB. If no packets are shown the sender has not sent any weather packets the latest 10 day(s).
| Time | Temp. | Humidity | Pressure | Rain* | Wind** | Luminosity | Snow |
|---|---|---|---|---|---|---|---|
| 1787948235 | 25.56° C | 51% | 1018.6 hPa | 0 mm | - | 594 W/m² | - |
| 1787947933 | 26.67° C | 53% | 1018.6 hPa | 0 mm | - | 491 W/m² | - |
| 1787947629 | 26.67° C | 48% | 1018.9 hPa | 0 mm | - | 642 W/m² | - |
| 1787947328 | 26.67° C | 49% | 1018.8 hPa | 0 mm | - | 720 W/m² | - |
| 1787947023 | 25.56° C | 49% | 1019 hPa | 0 mm | - | 603 W/m² | - |
| 1787946721 | 25° C | 49% | 1018.9 hPa | 0 mm | - | 316 W/m² | - |
| 1787946420 | 25° C | 52% | 1019 hPa | 0 mm | - | 219 W/m² | - |
| 1787946120 | 24.44° C | 53% | 1019 hPa | 0 mm | - | 227 W/m² | - |
| 1787945815 | 25° C | 50% | 1018.8 hPa | 0 mm | - | 233 W/m² | - |
| 1787945515 | 25° C | 50% | 1019 hPa | 0 mm | - | 241 W/m² | - |
| 1787945211 | 26.11° C | 49% | 1019 hPa | 0 mm | - | 288 W/m² | - |
| 1787944909 | 26.67° C | 51% | 1019.2 hPa | 0 mm | - | 440 W/m² | - |
| 1787944608 | 26.11° C | 55% | 1019.2 hPa | 0 mm | - | 839 W/m² | - |
| 1787944304 | 25.56° C | 49% | 1019.1 hPa | 0 mm | - | 759 W/m² | - |
| 1787943999 | 26.67° C | 46% | 1019.3 hPa | 0 mm | - | 463 W/m² | - |
| 1787943694 | 25.56° C | 55% | 1019.3 hPa | 0 mm | - | 589 W/m² | - |
| 1787943389 | 26.67° C | 48% | 1019.1 hPa | 0 mm | - | 917 W/m² | - |
| 1787943084 | 26.67° C | 48% | 1019.4 hPa | 0 mm | - | 959 W/m² | - |
| 1787942780 | 26.67° C | 51% | 1019.3 hPa | 0 mm | - | 932 W/m² | - |
| 1787942479 | 26.67° C | 47% | 1019.2 hPa | 0 mm | - | 712 W/m² | - |
| 1787942175 | 26.67° C | 48% | 1019.3 hPa | 0 mm | - | 685 W/m² | - |
| 1787941870 | 26.11° C | 52% | 1019.2 hPa | 0 mm | - | 671 W/m² | - |
| 1787941569 | 26.11° C | 47% | 1019.3 hPa | 0 mm | - | 690 W/m² | - |
| 1787941264 | 25.56° C | 49% | 1019.6 hPa | 0 mm | - | 685 W/m² | - |
| 1787940964 | 25.56° C | 48% | 1019.4 hPa | 0 mm | - | 675 W/m² | - |
* Rain latest hour (hover to see other rain measurements)
** Current wind speed in m/s (hover to see current wind gust speed)